Kezdőlap
METAR-TAF:

METAR-TAF

Repülőterek :

Jacksonville Municipal Airport

Jacksonville, Illinois, Amerikai Egyesült Államok

földrajzi szélesség: 39-46-27N, földrajzi hosszúság: 090-14-19W, magasság: 190 m

Jelenlegi meteorológiai megfigyelések

A jelentés 30 perccel ezelõtt készült, 16:55 UTC
Délnyugati szél 9 kt széllökések: 15 kt
Hőmérséklet 5°C
Páratartalom 75%
Légköri nyomás 1016 hPa
Látótávolság: 16.1 km
Derült ég

METAR: KIJX 041655Z AUTO 22009G15KT 10SM CLR 05/01 A3001 RMK AO2 T00500008

Idő: 11:25 (17:25 UTC)


TAF: hiányzik

Meteorológiai megfigyelések és előrejelzések több, mint 4000 repülőtéren (METAR és TAF jelentéseket).

A térképen piros és sárga pontok jelzik az elérhető meteorológiai állomásokat.

Mozgassa az egeret a pont fölött, hogy megjelenjen az állomás neve.

Azután kattintson az időjárási megfigyelések és előrejelzések megtekintéséhez.

A térkép megváltoztatása: kattintson a fekete keresztel jelölt zöld gombra ráközelítéshez, a vonallal jelölt zöld gombra távolításhoz, vagy a zöld nyilakra a szomszédos térképek eléréséhez.


METAR-TAF: